NAKANO
         **** Don't distribute anyone except personal use only ****
           (C) Copyright 2010 Orbit.Astro.Assoc./ComputingSection
write mail from CFAD0::NAKANO on 2010-03-22 08:10:35(JST).




 C/2008 Q3 (Garradd)
Epoch 2009 June 18.0 TT = JDT 2455000.5  
T 2009 June 23.09142 TT                                 Nakano
q   1.7982120            (2000.0)            P               Q
z  +0.0001683      Peri.  340.85469     -0.56423608     -0.71955100
 +/-0.0000031      Node   219.73442     -0.65050508     +0.08550777
e   0.9996974      Incl.  140.70581     -0.50841006     +0.68915512
From 524 observations 2008 Aug. 27-2010 Jan. 16, mean residual 0".59.
   Nongravitational parameters A1 = +4.46 +/- 0.07, A2 = +2.6295 +/- 0.1308.
   (1/a)org.= +0.000295, (1/a)fut.= +0.000665 (+/-0.000003), Q= 7.
   K. Kadota, Ageo, gives the total CCD magnitude = 14.2 on Dec. 14
   and 14.6 on Dec. 31 2009, respectively.

NAKANO
         **** Don't distribute anyone except personal use only ****
           (C) Copyright 2010 Orbit.Astro.Assoc./ComputingSection
write mail from CFAD0::NAKANO on 2010-01-27 08:20:36(JST).
 
    C/2008 Q3 (Garradd)
Epoch 2009 June 18.0 TT = JDT 2455000.5  
T 2009 June 23.09713 TT                                 Nakano
q   1.7982057            (2000.0)            P               Q
z  +0.0001625      Peri.  340.85812     -0.56427664     -0.71951711
 +/-0.0000024      Node   219.73464     -0.65050098     +0.08554152
e   0.9997077      Incl.  140.70559     -0.50837029     +0.68918632
From 400 observations 2008 Aug. 27-2009 July 18, mean residual 0".61.
   (1/a)org.= +0.000265, (1/a)fut.= +0.000726 (+/-0.000002), Q= 7.
NAKANO
         **** Don't distribute anyone except personal use only ****
                (C) Copyright 2009 OAA/ComputingSection
write mail from CFAD0::NAKANO on 2009-07-29 07:36:14(JST).
 


    C/2008 Q3 (Garradd)
Epoch 2009 June 18.0 TT = JDT 2455000.5  
T 2009 June 23.09763 TT                                 Nakano
q   1.7982001            (2000.0)            P               Q
z  +0.0001681      Peri.  340.85848     -0.56428067     -0.71951397
 +/-0.0000024      Node   219.73467     -0.65050085     +0.08554567
e   0.9996978      Incl.  140.70562     -0.50836599     +0.68918908
From 269 observations 2008 Aug. 27-2009 June 17, mean residual 0".53.
   (1/a)org.= +0.000270, (1/a)fut.= +0.000731 (+/-0.000002), Q= 7.
NAKANO
         **** Don't distribute anyone except personal use only ****
                (C) Copyright 2009 OAA/ComputingSection
write mail from CFAD0::NAKANO on 2009-06-20 01:00:31(JST).


◎C/2008 Q3の軌道と予報位置

 八束の安部裕史氏は,6月11日夕刻,南から昇ってきたこの彗星の観測に成功
しました.氏の観測は,北半球では,この彗星の初めての観測となります.氏に
よると,彗星は「尾が広がった,いかにも彗星らしい姿」とのことです.氏のCCD
全光度は,10.6等でした.

    C/2008 Q3 (Garradd)
Epoch 2009 June 18.0 TT = JDT 2455000.5  
T 2009 June 23.09764 TT                                 Nakano
q   1.7982013            (2000.0)            P               Q
z  +0.0001688      Peri.  340.85844     -0.56428035     -0.71951431
 +/-0.0000025      Node   219.73465     -0.65050078     +0.08554542
e   0.9996965      Incl.  140.70562     -0.50836643     +0.68918875
From 215 observations 2008 Aug. 27-2009 June 11, mean residual 0".51.
   (1/a)org.= +0.000271, (1/a)fut.= +0.000732 (+/-0.000003), Q= 7.

2009/        α  (2000) δ      △      r    Daily motion  Elong. Phase    m1   天文薄明終了時
 21h JST    h  m       。  ,        AU      AU      。     。     。      。      等     h。    A 。 
June 10   13 28.11  -43 08.8    0.981   1.805   109.1/332   129.5   25.7    7.6   +10.5    9.2
     11   13 23.57  -41 31.9    0.992   1.804   106.4/333   128.1   26.3    7.7   +11.8   11.2
     12   13 19.40  -39 56.7    1.004   1.803   103.4/334   126.5   26.9    7.7   +13.0   13.2
     13   13 15.58  -38 23.3    1.017   1.802   100.4/335   124.9   27.5    7.7   +14.1   15.2
     14   13 12.06  -36 52.0    1.031   1.802    97.3/336   123.3   28.1    7.7   +15.1   17.2
     15   13 08.83  -35 23.0    1.046   1.801    94.1/337   121.7   28.7    7.8   +16.0   19.2
     16   13 05.85  -33 56.4    1.062   1.800    90.9/338   120.1   29.2    7.8   +16.8   21.2
     17   13 03.11  -32 32.2    1.079   1.800    87.7/338   118.4   29.8    7.8   +17.6   23.2
     18   13 00.59  -31 10.6    1.096   1.799    84.5/339   116.8   30.3    7.8   +18.3   25.2
     19   12 58.26  -29 51.6    1.115   1.799    81.4/340   115.1   30.8    7.9   +18.9   27.1
     20   12 56.12  -28 35.2    1.134   1.799    78.3/340   113.5   31.2    7.9   +19.4   29.0
     21   12 54.14  -27 21.4    1.153   1.798    75.3/341   111.8   31.6    7.9   +19.9   30.9
     22   12 52.32  -26 10.2    1.173   1.798    72.3/342   110.2   32.0    8.0   +20.3   32.8
     23   12 50.64  -25 01.5    1.194   1.798    69.4/342   108.6   32.4    8.0   +20.6   34.6
     24   12 49.09  -23 55.4    1.216   1.798    66.6/343   107.0   32.7    8.1   +20.9   36.4
     25   12 47.66  -22 51.7    1.237   1.798    63.9/343   105.5   33.0    8.1   +21.1   38.1
     26   12 46.35  -21 50.4    1.260   1.799    61.3/344   103.9   33.3    8.1   +21.3   39.8
     27   12 45.14  -20 51.4    1.282   1.799    58.8/345   102.4   33.5    8.2   +21.4   41.5
     28   12 44.03  -19 54.7    1.305   1.800    56.4/345   100.9   33.7    8.2   +21.5   43.1
     29   12 43.01  -19 00.1    1.329   1.800    54.1/346    99.4   33.9    8.3   +21.5   44.7
     30   12 42.07  -18 07.7    1.352   1.801    51.9/346    97.9   34.0    8.3   +21.5   46.2
July  1   12 41.22  -17 17.2    1.376   1.801    49.8/347    96.5   34.1    8.4   +21.5   47.7
      2   12 40.43  -16 28.7    1.400   1.802    47.8/348    95.1   34.2    8.4   +21.4   49.2
      3   12 39.72  -15 42.1    1.425   1.803    45.8/348    93.7   34.2    8.4   +21.3   50.6
      4   12 39.07  -14 57.2    1.450   1.804    44.0/349    92.3   34.3    8.5   +21.2   52.0
      5   12 38.48  -14 14.1    1.474   1.805    42.2/349    91.0   34.3    8.5   +21.0   53.3
      6   12 37.95  -13 32.6    1.499   1.806    40.5/350    89.6   34.2    8.6   +20.9   54.6
      7   12 37.47  -12 52.7    1.525   1.808    38.9/351    88.3   34.2    8.6   +20.7   55.8
      8   12 37.04  -12 14.3    1.550   1.809    37.4/351    87.0   34.1    8.7   +20.5   57.0
      9   12 36.66  -11 37.3    1.575   1.810    35.9/352    85.8   34.1    8.7   +20.2   58.2
     10   12 36.32  -11 01.7    1.601   1.812    34.6/353    84.5   33.9    8.7   +20.0   59.4
     11   12 36.03  -10 27.4    1.626   1.814    33.2/354    83.2   33.8    8.8   +19.8   60.5
     12   12 35.78  -09 54.3    1.652   1.815    32.0/354    82.0   33.7    8.8   +19.5   61.5
     13   12 35.56  -09 22.5    1.677   1.817    30.8/355    80.8   33.5    8.9   +19.2   62.6
     14   12 35.38  -08 51.8    1.703   1.819    29.7/356    79.6   33.3    8.9   +19.0   63.6
     15   12 35.24  -08 22.2    1.729   1.821    28.6/357    78.4   33.1    9.0   +18.7   64.5
     16   12 35.12  -07 53.7    1.754   1.823    27.6/357    77.2   32.9    9.0   +18.5   65.4
     17   12 35.04  -07 26.2    1.780   1.825    26.6/358    76.1   32.7    9.1   +18.2   66.3
     18   12 34.99  -06 59.6    1.805   1.827    25.7/359    74.9   32.5    9.1   +17.9   67.2
     19   12 34.97  -06 33.9    1.831   1.830    24.8/  0    73.8   32.2    9.2   +17.6   68.0
     20   12 34.97  -06 09.2    1.856   1.832    23.9/  1    72.7   32.0    9.2   +17.3   68.9
     21   12 35.00  -05 45.2    1.882   1.835    23.1/  2    71.6   31.7    9.3   +17.0   69.7
     22   12 35.05  -05 22.1    1.907   1.837    22.4/  3    70.5   31.4    9.3   +16.7   70.5
     23   12 35.13  -04 59.7    1.932   1.840    21.7/  4    69.4   31.1    9.3   +16.4   71.2
     24   12 35.22  -04 38.1    1.958   1.843    21.0/  5    68.3   30.8    9.4   +16.1   72.0
     25   12 35.34  -04 17.2    1.983   1.845    20.4/  6    67.3   30.5    9.4   +15.8   72.7
     26   12 35.48  -03 56.9    2.008   1.848    19.8/  7    66.2   30.2    9.5   +15.5   73.4
     27   12 35.64  -03 37.3    2.032   1.851    19.2/  8    65.1   29.9    9.5   +15.2   74.1
     28   12 35.82  -03 18.3    2.057   1.854    18.7/  9    64.1   29.5    9.6   +14.8   74.8
     29   12 36.01  -02 59.8    2.082   1.857    18.1/ 10    63.1   29.2    9.6   +14.5   75.5
     30   12 36.22  -02 42.0    2.106   1.861    17.7/ 11    62.1   28.8    9.7   +14.2   76.1
     31   12 36.45  -02 24.7    2.130   1.864    17.2/ 12    61.0   28.5    9.7   +13.9   76.7
Aug.  1   12 36.69  -02 07.9    2.154   1.867    16.8/ 13    60.0   28.1    9.8   +13.6   77.3
                    m1 =  0.5 + 5 log △ + 28.0 log r
NAKANO
         **** Don't distribute anyone except personal use only ****
                (C) Copyright 2009 OAA/ComputingSection
write mail from CFAD0::NAKANO on 2009-06-12 06:10:27(JST).
◎C/2008 Q3の軌道と予報位置

 天文ガイド7月号でも紹介したが,南半球で4月〜5月にかけて8等級と明るく
観測されているこの彗星が6月上旬に7等級で我々の視界に入ってくる.
  この彗星は,昨年2008年8月にサイデング・スプリングで発見されたときは,
19等級の微光の彗星で,その頃の彗星の標準等級はH10=10.5等であった.しか
し,最近のそれはH10=5.0等と,彗星の標準等級は,この間に5等級以上も増光
したことになる.南天から北上した彗星は,予報図(天ガ)にあるとおり,6月
には,空を大きく移動し,7等級で観測できるだろう.なお,彗星は,6月2.0日
UTに地球に0.94 AUまで接近する.

以下,『天文ガイド』より抜粋

●ガラッド彗星  (2008 Q3)
 南半球で2009年4月と5月に8等級と明るく観測されているこの彗星が6月には,
夕方の西南の空に見え始めます.南半球での彗星の眼視全光度が4月23日に9.1等,
25日に9.0等,27日に8.9等(ゴイアト),28日に9.1等,5月3日に8.8等(アモリム)
,8.5等(ゴイアト)と観測されています.CCD全光度も,サイデング・スプリングで
の観測では,4月21日に11.5等,5月5日に10.6等と明るく報告されています.次の
軌道は,2008年8月27日から2009年4月21日までに行なわれた59個の観測から計算し
たものです.
             Epoch = 2009 June 18.0 TT
   T = 2009 June 23.09626 TT    ω = 340.85899
   e =   0.9997075              Ω = 219.73461    (2000.0)
   q =   1.7981742 AU           i = 140.70559
  1/a =  +0.000265 (origin)   +0.000726 (future)   Q = 7

【経路図C入る】

新しい軌道と予報位置:

